Wind_Speed
23 25 28 30 31 34 36 37 38 40 41 41 42 43 43 43 42 41 40 39 38 37 37 36 36 36 35 33 32 31 30 30 29 28 28 27 25 25 25 25 26 26 26 25
22 25 27 30 32 35 37 38 40 42 42 42 43 44 44 43 43 42 41 40 39 39 39 38 38 39 38 38 37 35 34 34 33 32 32 31 29 28 28 29 29 29 29 28
23 26 29 32 35 37 39 40 41 42 42 42 42 43 42 41 41 40 39 37 37 36 37 37 38 39 40 40 40 40 38 37 36 36 36 35 33 33 32 32 33 32 31 30
25 28 31 35 37 39 42 43 43 43 43 41 41 40 41 38 37 36 35 34 33 32 33 35 36 38 39 41 42 42 41 40 40 40 40 39 38 38 37 36 35 34 33 31
29 31 34 37 40 41 44 45 45 45 44 43 41 40 40 37 35 35 34 33 33 33 33 33 35 37 39 41 42 44 44 44 42 42 42 42 42 42 40 38 36 34 33 32
28 30 32 35 38 40 41 42 43 43 42 43 40 38 39 38 36 35 35 35 35 34 34 34 35 37 38 40 42 44 44 45 44 44 44 44 44 44 43 41 38 35 34 33
28 28 29 31 32 34 35 35 35 34 34 35 36 36 39 38 36 35 35 35 35 35 35 36 37 37 38 39 41 42 43 44 44 44 45 46 45 46 47 44 40 36 34 32
26 27 28 28 27 27 26 24 23 23 22 24 26 29 31 31 32 33 33 33 33 33 34 35 35 35 35 36 37 39 41 42 42 42 43 45 47 47 46 44 41 36 33 30
26 27 28 26 24 23 20 16 13 12 14 17 18 21 23 23 24 25 25 26 26 27 27 28 29 30 30 30 32 35 37 38 39 40 42 42 42 43 45 43 37 34 30 25
26 27 27 26 25 23 20 15 10 5 2 5 9 12 12 13 14 15 15 15 16 17 18 19 20 22 22 23 25 28 31 33 34 35 37 38 40 39 37 34 29 26 22 18
27 28 27 26 25 24 21 16 13 9 5 3 2 2 3 4 5 7 7 8 8 8 10 10 11 13 15 17 19 21 23 25 27 28 29 30 30 27 24 20 17 15 14 15
28 28 28 27 25 24 22 20 17 13 9 7 5 4 3 2 3 3 4 5 5 4 4 4 4 5 7 9 10 9 11 12 12 13 14 13 12 12 11 10 9 10 10 13
29 28 27 26 26 24 22 20 19 16 14 11 9 7 5 5 5 5 7 7 8 9 8 7 6 5 4 4 3 4 5 5 5 5 5 6 5 4 4 5 6 8 10 13
28 27 27 26 24 23 21 20 18 17 15 13 11 9 7 6 6 7 8 8 9 10 10 10 10 9 9 8 8 8 8 6 5 5 4 2 1 1 3 5 7 8 10 12
27 27 27 26 24 22 21 19 18 16 15 14 13 12 11 10 9 9 10 9 10 11 11 10 10 10 10 9 8 8 7 6 5 4 3 3 3 4 5 6 7 9 11 12
26 25 26 25 24 22 20 19 18 18 17 16 15 14 13 13 13 11 10 10 10 10 10 10 10 10 9 8 8 7 6 6 6 5 5 5 5 6 7 8 9 11 13 15
26 24 24 24 23 21 20 18 17 17 17 18 17 16 15 14 13 13 12 12 12 11 11 11 10 9 9 9 9 8 7 7 7 7 7 6 7 8 10 12 13 15 16 17
26 24 22 21 21 21 19 17 16 16 16 16 17 17 17 16 15 14 14 14 14 14 13 12 11 10 10 9 9 8 8 8 8 8 8 9 10 11 13 14 16 18 19 20
29 24 21 19 19 19 18 16 17 17 17 17 17 16 16 16 17 16 16 16 15 15 14 13 12 12 11 10 10 9 9 9 9 9 10 11 12 13 14 16 17 19 20 21
31 26 23 20 18 18 17 16 16 16 16 16 16 16 16 16 17 16 16 15 15 14 13 13 12 12 11 11 11 10 10 10 10 10 10 11 12 13 15 16 17 18 19 20
31 29 25 21 18 16 15 15 15 16 16 16 15 15 15 16 15 15 15 14 14 14 13 13 13 13 13 12 12 11 11 11 10 11 11 12 12 13 14 15 16 17 17 18
30 29 27 24 19 15 14 14 14 14 14 14 14 14 14 14 14 14 14 14 14 14 14 15 15 15 15 14 14 13 13 13 13 13 13 14 14 15 15 16 16 16 16 16
28 28 27 25 20 17 14 13 12 12 12 12 12 13 13 13 13 13 13 14 14 15 15 16 16 17 17 17 16 16 15 15 15 15 16 16 17 17 17 18 18 17 16 16
24 26 26 24 20 17 15 13 12 11 11 11 11 11 12 12 12 12 12 13 14 15 16 16 17 17 18 18 17 17 17 17 17 17 18 18 19 19 19 19 19 19 17 16
20 23 24 23 21 18 16 14 13 12 11 10 10 11 10 10 10 11 11 12 13 14 15 16 16 17 17 17 17 17 18 18 18 18 19 19 20 20 21 21 21 21 19 18
15 18 21 21 20 18 16 14 13 12 11 10 10 10 9 9 9 9 9 10 12 13 14 15 15 16 16 16 17 17 17 17 18 18 19 19 21 21 22 22 22 21 21 20
Wind_Direction
269 269 269 269 268 268 268 267 266 265 264 264 264 264 264 265 264 264 263 263 262 261 261 261 262 264 266 267 269 271 272 272 271 272 271 270 268 265 262 258 254 252 251 253
277 275 277 276 274 273 271 269 268 267 266 266 265 265 265 266 266 266 266 265 264 263 262 261 260 261 262 264 266 267 268 269 271 271 271 271 270 266 262 259 255 252 251 253
284 284 283 281 279 277 275 272 271 270 269 268 268 267 266 266 267 267 267 266 265 265 264 264 262 261 261 261 262 262 263 263 266 269 271 272 271 268 264 260 258 254 251 251
294 292 290 288 285 282 279 276 273 272 270 269 268 268 267 266 267 267 267 267 267 266 266 265 264 263 261 259 259 259 259 260 262 265 267 269 269 267 264 262 261 257 250 248
307 303 298 294 290 285 281 277 274 271 269 267 267 267 268 266 266 267 268 269 270 271 270 269 268 265 262 258 256 255 255 257 260 263 264 265 265 264 262 261 260 259 253 248
320 315 308 301 296 290 285 280 274 269 266 264 264 265 265 265 266 268 270 272 273 274 273 272 271 268 264 259 255 252 253 254 256 259 260 261 262 260 261 261 260 259 255 250
335 331 324 317 309 301 294 287 281 273 267 263 261 259 261 265 266 267 269 271 273 274 275 274 273 270 265 259 254 251 251 252 254 256 258 260 259 259 261 259 259 256 251 246
348 343 339 333 327 320 310 299 285 272 262 258 256 253 257 261 262 263 265 268 271 272 273 274 272 268 264 259 254 250 250 252 254 256 259 262 262 262 260 258 258 252 247 244
356 352 351 350 348 345 339 326 309 283 260 249 247 249 253 256 259 259 260 264 266 269 270 270 269 266 263 259 255 252 251 254 256 258 260 263 266 266 263 258 252 245 240 239
4 2 2 3 4 4 3 4 1 344 270 237 239 245 252 253 255 253 254 257 261 262 263 265 264 262 261 259 257 255 254 257 259 260 261 263 263 262 258 251 244 237 230 231
9 9 10 13 15 16 20 27 33 44 69 130 165 219 246 241 233 229 229 236 242 247 250 255 259 258 257 255 254 254 254 255 256 257 260 259 255 250 241 230 225 228 230 240
15 16 17 19 22 25 30 38 47 54 63 72 75 69 95 139 160 168 173 169 170 169 180 199 217 233 239 238 239 243 243 244 244 245 244 237 223 216 215 214 222 230 243 254
20 20 20 22 25 29 35 42 49 55 62 70 76 75 83 83 94 92 106 115 121 135 133 130 132 131 134 149 147 126 139 152 160 166 161 165 165 178 201 225 239 251 260 263
21 23 23 24 27 31 37 42 49 55 60 67 74 78 75 76 77 76 82 83 88 109 112 114 111 106 106 107 103 94 94 94 97 94 89 99 126 261 269 270 271 269 268 270
20 22 24 26 29 33 38 42 48 53 58 68 72 73 72 73 73 73 71 74 76 89 92 97 98 93 94 91 87 80 71 62 55 41 31 356 326 309 300 290 283 278 276 276
19 21 24 27 30 34 40 44 49 57 62 66 69 71 71 72 72 71 70 71 69 73 75 75 78 73 67 64 61 54 47 34 25 17 4 349 335 317 303 297 289 286 285 282
19 20 23 27 30 35 42 46 50 57 63 63 63 66 70 72 73 71 70 69 70 69 68 65 61 55 50 45 42 38 29 19 10 1 349 334 322 313 306 300 295 291 287 285
19 20 23 28 30 35 40 47 50 53 61 62 63 66 69 70 72 72 70 71 70 69 68 65 60 54 48 42 36 28 19 8 358 347 336 326 317 310 305 300 294 291 288 286
21 22 23 27 32 36 42 49 52 56 61 63 63 67 68 68 71 68 66 66 66 63 61 59 55 51 45 37 28 20 12 3 352 342 332 325 318 312 307 303 299 295 291 288
24 26 26 27 31 38 45 52 57 60 62 64 64 65 65 65 64 61 59 57 57 56 54 52 48 43 37 31 25 18 10 2 354 346 338 329 322 317 313 309 306 302 298 294
27 29 29 31 37 45 52 56 59 62 63 64 64 63 62 61 58 56 54 52 52 52 50 48 45 41 37 34 30 25 20 14 7 1 354 347 341 336 331 325 319 314 308 303
27 29 30 33 40 49 58 62 63 64 65 66 66 63 61 59 57 56 55 53 51 50 49 48 46 43 41 39 37 36 33 29 24 19 13 8 2 356 351 345 339 332 326 318
26 28 31 35 43 53 58 64 65 67 66 65 66 64 62 60 59 59 55 51 49 48 47 46 45 45 44 43 43 42 40 37 33 29 25 20 15 9 4 358 353 347 341 336
25 27 30 34 42 49 54 60 62 66 65 63 63 62 61 61 59 57 54 51 49 47 46 45 46 45 45 47 47 45 44 42 39 34 30 26 22 18 13 9 5 360 354 350
22 25 29 33 38 43 49 54 57 61 60 56 55 55 58 59 57 55 53 50 47 46 45 46 46 46 47 49 48 47 45 42 39 35 33 29 25 23 19 16 13 12 11 9
17 22 26 31 34 37 42 45 48 50 49 47 46 47 52 56 57 54 52 49 46 45 45 46 46 46 48 48 47 45 42 39 37 34 33 31 28 27 26 25 24 24 25 27
Height
5873 5873 5870 5869 5868 5866 5865 5864 5862 5860 5859 5860 5858 5857 5857 5858 5859 5860 5861 5863 5864 5865 5866 5867 5867 5868 5868 5868 5869 5870 5870 5869 5869 5869 5868 5868 5868 5869 5868 5869 5869 5869 5870 5870
5870 5867 5865 5862 5860 5858 5856 5854 5852 5850 5849 5849 5848 5847 5847 5848 5849 5850 5851 5853 5854 5855 5857 5858 5859 5860 5860 5861 5861 5862 5862 5862 5862 5862 5861 5861 5861 5862 5862 5862 5862 5862 5863 5864
5865 5862 5858 5855 5852 5849 5845 5843 5841 5840 5839 5838 5838 5838 5837 5838 5838 5840 5841 5842 5844 5846 5847 5849 5850 5851 5852 5853 5853 5854 5854 5855 5855 5854 5854 5854 5854 5854 5854 5854 5855 5855 5856 5858
5859 5855 5851 5846 5842 5839 5834 5832 5830 5828 5828 5827 5828 5828 5827 5828 5829 5830 5831 5833 5835 5837 5838 5839 5840 5841 5842 5843 5844 5844 5845 5846 5847 5847 5847 5846 5846 5846 5846 5846 5847 5848 5849 5850
5852 5847 5842 5837 5831 5826 5822 5819 5817 5815 5814 5815 5816 5817 5818 5819 5820 5821 5822 5824 5826 5827 5829 5830 5831 5831 5832 5833 5834 5835 5836 5837 5838 5838 5838 5838 5837 5837 5837 5838 5839 5841 5843 5844
5845 5839 5832 5826 5819 5812 5807 5804 5801 5800 5800 5802 5805 5807 5806 5809 5811 5812 5813 5815 5817 5818 5819 5820 5821 5821 5821 5822 5823 5825 5826 5828 5829 5830 5830 5830 5829 5828 5829 5830 5832 5833 5835 5837
5838 5831 5824 5816 5808 5801 5794 5790 5788 5787 5788 5791 5793 5795 5794 5798 5801 5802 5804 5806 5807 5809 5810 5810 5811 5811 5811 5812 5813 5815 5817 5818 5820 5821 5822 5821 5821 5821 5821 5822 5823 5825 5827 5828
5834 5827 5819 5810 5801 5793 5785 5780 5778 5778 5779 5780 5781 5783 5785 5788 5790 5792 5794 5796 5798 5800 5800 5801 5801 5801 5801 5802 5803 5805 5807 5809 5811 5813 5814 5814 5813 5813 5814 5814 5815 5816 5818 5820
5832 5824 5815 5805 5796 5788 5780 5774 5771 5770 5770 5772 5775 5776 5778 5780 5782 5784 5786 5788 5789 5791 5792 5792 5792 5792 5793 5794 5795 5797 5799 5801 5803 5804 5805 5806 5805 5806 5806 5806 5807 5808 5810 5812
5830 5822 5813 5804 5796 5788 5780 5773 5769 5767 5767 5769 5771 5772 5774 5775 5776 5778 5780 5781 5783 5784 5784 5785 5785 5785 5786 5787 5788 5790 5791 5793 5795 5796 5796 5797 5797 5798 5798 5798 5799 5801 5803 5806
5828 5821 5813 5804 5796 5788 5782 5776 5771 5769 5768 5769 5770 5774 5772 5773 5774 5775 5776 5777 5778 5779 5780 5780 5780 5780 5781 5781 5783 5783 5784 5786 5787 5788 5789 5790 5790 5791 5792 5793 5795 5797 5799 5802
5828 5821 5814 5806 5799 5791 5785 5779 5775 5773 5771 5771 5771 5775 5772 5772 5772 5773 5774 5775 5775 5776 5776 5776 5777 5777 5777 5778 5779 5779 5779 5780 5782 5783 5784 5785 5785 5787 5788 5790 5793 5795 5796 5798
5829 5823 5816 5809 5804 5797 5790 5784 5780 5777 5775 5774 5774 5777 5773 5773 5773 5773 5773 5774 5774 5774 5774 5774 5775 5775 5776 5776 5777 5777 5777 5778 5779 5780 5781 5783 5784 5785 5787 5788 5791 5792 5793 5794
5831 5824 5819 5813 5806 5800 5794 5789 5785 5783 5780 5778 5777 5777 5776 5775 5775 5775 5775 5775 5775 5775 5775 5775 5775 5775 5776 5776 5776 5776 5777 5777 5779 5780 5781 5782 5783 5784 5786 5787 5788 5789 5789 5790
5833 5827 5820 5815 5809 5804 5799 5794 5791 5788 5785 5783 5782 5780 5780 5779 5778 5778 5777 5777 5777 5777 5776 5776 5776 5776 5777 5777 5777 5778 5778 5779 5780 5780 5781 5782 5783 5783 5784 5784 5785 5785 5785 5785
5834 5829 5823 5818 5812 5807 5803 5799 5796 5793 5791 5788 5787 5786 5784 5783 5782 5782 5781 5780 5780 5780 5779 5779 5779 5779 5779 5779 5780 5780 5780 5780 5781 5781 5781 5782 5782 5782 5782 5782 5782 5781 5781 5780
5835 5830 5825 5820 5815 5811 5807 5804 5801 5798 5796 5794 5792 5791 5788 5787 5787 5787 5786 5785 5784 5783 5783 5782 5782 5782 5782 5781 5781 5781 5781 5781 5781 5781 5781 5781 5781 5780 5780 5779 5778 5777 5776 5775
5837 5832 5827 5823 5819 5815 5814 5808 5806 5803 5801 5799 5797 5795 5794 5793 5792 5791 5790 5789 5788 5787 5787 5786 5785 5785 5784 5784 5783 5783 5783 5782 5782 5781 5780 5780 5779 5778 5777 5776 5774 5773 5771 5769
5838 5834 5829 5825 5821 5818 5815 5812 5809 5808 5805 5804 5802 5801 5799 5798 5797 5796 5795 5794 5793 5792 5791 5790 5789 5788 5787 5786 5785 5784 5783 5782 5781 5780 5779 5778 5776 5775 5773 5772 5770 5768 5765 5763
5841 5836 5831 5827 5824 5821 5820 5816 5813 5813 5810 5808 5807 5806 5804 5803 5802 5801 5799 5798 5797 5796 5795 5793 5792 5790 5789 5788 5786 5785 5783 5782 5781 5779 5777 5776 5774 5772 5770 5767 5765 5762 5760 5757
5846 5840 5834 5829 5826 5824 5821 5819 5818 5817 5816 5813 5811 5810 5808 5807 5806 5805 5803 5802 5801 5799 5798 5796 5795 5793 5791 5789 5787 5786 5784 5782 5780 5778 5776 5774 5771 5769 5766 5764 5761 5758 5754 5751
5849 5844 5838 5833 5829 5828 5824 5822 5821 5820 5817 5816 5814 5813 5812 5810 5809 5808 5806 5805 5804 5802 5800 5799 5797 5795 5793 5791 5789 5787 5785 5782 5780 5778 5775 5773 5770 5767 5764 5761 5757 5754 5750 5747
5853 5848 5843 5838 5835 5830 5827 5825 5823 5822 5820 5819 5818 5816 5815 5814 5813 5811 5810 5808 5807 5805 5803 5801 5799 5797 5795 5793 5791 5788 5786 5784 5782 5779 5776 5774 5771 5767 5764 5760 5756 5752 5748 5744
5857 5852 5847 5842 5837 5834 5830 5828 5826 5824 5823 5822 5820 5819 5818 5817 5816 5814 5813 5811 5810 5808 5806 5804 5802 5800 5798 5795 5793 5791 5789 5786 5784 5781 5779 5775 5772 5768 5764 5760 5755 5751 5746 5742
5859 5855 5850 5846 5842 5837 5834 5831 5829 5827 5825 5824 5822 5821 5820 5819 5818 5817 5815 5814 5812 5811 5809 5807 5805 5803 5801 5799 5797 5795 5792 5790 5787 5784 5781 5778 5774 5770 5766 5761 5756 5751 5746 5741
5861 5857 5853 5850 5845 5842 5838 5835 5832 5830 5827 5826 5824 5823 5822 5821 5820 5819 5818 5816 5815 5813 5812 5810 5808 5806 5804 5802 5800 5798 5796 5793 5790 5787 5784 5781 5777 5773 5768 5764 5758 5753 5748 5743